Home   Weather   State College   Past weeks

Flag for USA Past Weather in State College, Pennsylvania, USA — Yesterday and Last 2 Weeks

52 °F


Feels Like: 48 °F
Forecast: 38 / 51 °F
Wind: 12 mph from Northwest

Location: University Park Airport

Current Time: Oct 28, 2016 at 3:44:28 PM

Latest Report: Oct 28, 2016 at 2:53 PM

Visibility: 10 mi

Pressure: 30.20 "Hg

Humidity: 41%

Dew Point: 28 °F

Location of State CollegeLocation

Past Weather in State College — Graph


State College Temperature Yesterday

Maximum temperature yesterday: 48 °F (at 8:53 PM)
Minimum temperature yesterday: 37 °F (at 5:53 AM)
Average temperature yesterday: 43 °F

High & Low Weather Summary for the Past Weeks

High81 °F (Oct 18, 3:53 PM)100% (Oct 14, 5:53 AM)30.46 "Hg (Oct 14, 5:53 AM)
Low28 °F (Oct 26, 7:53 AM)40% (Oct 25, 2:53 PM)29.62 "Hg (Oct 21, 9:53 AM)
Average52 °F77%30.07 "Hg
* Reported Oct 13 1:53 PM — Oct 28 1:53 PM, State College, Weather by CustomWeather, © 2016

Note: Actual official high and low records may vary slightly from our data, if they occured in-between our weather recording intervals... More about our weather records


State College Weather History for the Previous 24 Hours

Scroll right to see more
Time TempWeatherWind HumidityBarometerVisibility
1:53 PM
Fri, Oct 28
52 °FSunny.9 mph41%30.21 "Hg10 mi
12:53 PM48 °FSunny.13 mph50%30.25 "Hg10 mi
11:53 AM46 °FSunny.12 mph53%30.26 "Hg10 mi
10:53 AM43 °FScattered clouds.14 mph61%30.26 "Hg10 mi
9:53 AM41 °FScattered clouds.12 mph66%30.26 "Hg10 mi
8:53 AM39 °FScattered clouds.10 mph70%30.25 "Hg10 mi
7:53 AM39 °FScattered clouds.8 mph75%30.23 "Hg10 mi
6:53 AM39 °FClear.13 mph75%30.20 "Hg10 mi
5:53 AM41 °FClear.17 mph70%30.18 "Hg10 mi
5:35 AM40 °FClear.9 mph74%30.18 "Hg10 mi
5:15 AM40 °FClear.12 mph73%30.17 "Hg10 mi
4:55 AM41 °FPassing clouds.13 mph73%30.16 "Hg10 mi
4:35 AM41 °FPassing clouds.10 mph72%30.15 "Hg10 mi
4:15 AM42 °FMostly cloudy.12 mph75%30.15 "Hg10 mi
3:55 AM42 °FPartly cloudy.10 mph78%30.15 "Hg10 mi
3:35 AM42 °FOvercast.13 mph80%30.14 "Hg10 mi
3:15 AM42 °FDrizzle. Overcast.14 mph80%30.14 "Hg7 mi
2:55 AM44 °FDrizzle. Mostly cloudy.16 mph76%30.13 "Hg10 mi
2:35 AM44 °FMostly cloudy.12 mph77%30.13 "Hg10 mi
2:15 AM44 °FMostly cloudy.13 mph83%30.12 "Hg10 mi
1:55 AM44 °FLight rain. Overcast.12 mph83%30.12 "Hg10 mi
1:35 AM45 °FOvercast.No wind87%30.12 "Hg10 mi
1:15 AM45 °FMostly cloudy.12 mph86%30.12 "Hg10 mi
12:55 AM46 °FOvercast.14 mph84%30.11 "Hg10 mi
12:35 AM46 °FMostly cloudy.17 mph82%30.11 "Hg10 mi
12:15 AM46 °FMostly cloudy.12 mph82%30.10 "Hg10 mi
11:55 PM
Thu, Oct 27
46 °FMostly cloudy.10 mph82%30.10 "Hg10 mi
11:35 PM46 °FOvercast.10 mph84%30.10 "Hg10 mi
11:15 PM47 °FMostly cloudy.9 mph82%30.10 "Hg10 mi
10:55 PM47 °FMostly cloudy.10 mph80%30.10 "Hg10 mi
10:35 PM47 °FMostly cloudy.13 mph81%30.10 "Hg10 mi
9:55 PM48 °FMostly cloudy.13 mph80%30.09 "Hg10 mi
8:53 PM48 °FOvercast.12 mph87%30.07 "Hg10 mi
7:53 PM46 °FFog.No wind93%30.05 "Hg5 mi
6:53 PM45 °FFog.No wind100%30.03 "Hg3 mi
5:53 PM45 °FFog.No wind100%30.03 "Hg3 mi
4:53 PM46 °FDrizzle. Fog.5 mph93%30.01 "Hg5 mi
3:53 PM45 °FDrizzle. Fog.8 mph93%30.03 "Hg5 mi
Weather by CustomWeather, © 2016

See weather overviewHow to use our weather pages